Location: ????
(30.1475°N, 31.1342°E)
Time: 02:36:00
(UTC+00:00)

ASTRO E2 - Pass Details

Date: 27 September 2022
Orbit: 493 x 499 km, 31.4° (Epoch: 30 November)

Event Time Altitude Azimuth Distance (km) Brightness Sun altitude
Exits shadow 01:49:20 44° 87° (E) 698 3.7 -25.9°
Drops below altitude 10° 01:52:05 10° 81° (E) 1,696 6.4 -25.3°
Enters shadow 02:48:07 -72° 265° (W) 12,622 9.6 -13.4°
Maximum altitude 03:28:22 72° 1° (N) 526 2.8 -4.7°
